Minot, ND

5:47 AM CDT on April 24, 2018 (GMT -0500)
Minot International

Weather History for KMOT - March, 2013

Change the Weather History Date:

Monday, March 25, 2013

  Actual Average Record
Temperature  
Mean Temperature 10 °F 33 °F  
Max Temperature 19 °F 42 °F 78 °F (2007)
Min Temperature 1 °F 23 °F -17 °F (1964)
Degree Days  
Heating Degree Days 55 32  
Month to date heating degree days 1290 952  
Since 1 July heating degree days 8020 7528  
Cooling Degree Days 0 0  
Month to date cooling degree days 0 0  
Year to date cooling degree days 0 0  
Moisture  
Dew Point 4 °F    
Average Humidity 81    
Maximum Humidity 95    
Minimum Humidity 67    
Precipitation  
Precipitation T in 0.03 in 0.33 in (1942)
Month to date precipitation 0.60 0.63  
Year to date precipitation 1.14 1.54  
Sea Level Pressure  
Sea Level Pressure 30.42 in    
Wind  
Wind Speed 6 mph (WNW)    
Max Wind Speed 15 mph    
Max Gust Speed 17 mph    
Visibility 7 miles    
Events      
T = Trace of Precipitation, MM = Missing Value Source: NWS Daily Summary

Daily Weather History Graph

Daily Weather History Graph

Search for Another Location

Airport or City:

Astronomy

Mar. 25, 2013 Rise Set
Actual Time 7:37 AM CDT 8:05 PM CDT
Civil Twilight 7:05 AM CDT 8:37 PM CDT
Nautical Twilight 6:28 AM CDT 9:14 PM CDT
Astronomical Twilight 5:50 AM CDT 9:53 PM CDT
Moon 6:35 PM CDT (3/25) 6:27 AM CDT (3/25)
Length of Visible Light 13h 31m
Length of Day
12h 28m
Waxing Gibbous, 96% of the Moon is Illuminated
Mar 25
Waxing Gibbous
Mar 27
Full
Apr 2
Last Quarter
Apr 10
New
Apr 18
First Quarter

Hourly Weather History & Observations

Time (CDT) Temp. Windchill Dew Point Humidity Pressure Visibility Wind Dir Wind Speed Gust Speed Precip Events Conditions
12:54 AM 7.0 °F -10.4 °F 3.9 °F 87% 30.44 in 10.0 mi West 15.0 mph - N/A   Clear
1:54 AM 5.0 °F -11.6 °F 1.0 °F 84% 30.44 in 10.0 mi West 12.7 mph - N/A   Clear
2:54 AM 5.0 °F -10.0 °F 1.0 °F 84% 30.44 in 10.0 mi West 10.4 mph - N/A   Clear
3:54 AM 3.0 °F -10.5 °F -0.9 °F 84% 30.44 in 10.0 mi West 8.1 mph - N/A   Clear
4:54 AM 1.0 °F -10.3 °F -2.9 °F 83% 30.44 in 10.0 mi WSW 5.8 mph - N/A   Clear
5:54 AM 1.0 °F -12.9 °F -2.0 °F 87% 30.45 in 10.0 mi West 8.1 mph - N/A   Clear
6:54 AM 1.9 °F -11.8 °F -0.9 °F 88% 30.45 in 10.0 mi West 8.1 mph - N/A   Clear
7:54 AM 1.9 °F -12.9 °F -0.9 °F 88% 30.47 in 9.0 mi West 9.2 mph - N/A   Clear
7:58 AM 3.2 °F -11.3 °F -0.4 °F 85% 30.34 in 2.5 mi West 9.2 mph - N/A   Partly Cloudy
8:13 AM 3.2 °F -12.2 °F -0.4 °F 85% 30.34 in 8.0 mi West 10.4 mph - N/A   Clear
8:23 AM 3.2 °F -11.3 °F -0.4 °F 85% 30.34 in 3.0 mi West 9.2 mph - N/A   Partly Cloudy
8:54 AM 3.9 °F -10.4 °F 1.0 °F 88% 30.48 in 8.0 mi West 9.2 mph - N/A   Scattered Clouds
9:01 AM 3.2 °F -11.3 °F 1.4 °F 92% 30.35 in 6.0 mi West 9.2 mph - N/A   Mostly Cloudy
9:16 AM 5.0 °F -9.1 °F 1.4 °F 85% 30.36 in 9.0 mi West 9.2 mph - N/A   Mostly Cloudy
9:54 AM 5.0 °F -9.1 °F 1.9 °F 87% 30.49 in 4.0 mi West 9.2 mph - N/A   Overcast
10:30 AM 6.8 °F -6.9 °F 3.2 °F 85% 30.36 in 2.5 mi West 9.2 mph - N/A   Overcast
10:41 AM 8.6 °F -4.7 °F 3.2 °F 79% 30.36 in 3.0 mi West 9.2 mph - N/A   Overcast
10:54 AM 8.1 °F -5.3 °F 3.9 °F 83% 30.49 in 3.0 mi WNW 9.2 mph - N/A   Overcast
11:54 AM 12.0 °F 1.5 °F 8.1 °F 84% 30.49 in 3.0 mi West 6.9 mph - 0.00 in   Overcast
12:01 PM 12.2 °F 1.7 °F 8.6 °F 85% 30.37 in 1.8 mi WNW 6.9 mph - N/A   Overcast
12:08 PM 12.2 °F 0.7 °F 8.6 °F 85% 30.37 in 5.0 mi WNW 8.1 mph - N/A   Overcast
12:54 PM 14.0 °F 3.9 °F 9.0 °F 80% 30.48 in 5.0 mi NW 6.9 mph - N/A   Haze
1:07 PM 14.0 °F 2.9 °F 8.6 °F 79% 30.36 in 10.0 mi NW 8.1 mph - N/A   Scattered Clouds
1:54 PM 16.0 °F 7.4 °F 10.0 °F 77% 30.47 in 10.0 mi WNW 5.8 mph - N/A   Clear
2:54 PM 17.1 °F 8.7 °F 10.0 °F 74% 30.46 in 10.0 mi NW 5.8 mph - N/A   Clear
3:54 PM 19.0 °F 11.1 °F 10.9 °F 71% 30.45 in 10.0 mi NW 5.8 mph - N/A   Clear
4:54 PM 19.0 °F 12.3 °F 12.0 °F 74% 30.45 in 10.0 mi North 4.6 mph - N/A   Clear
5:54 PM 18.0 °F 11.1 °F 10.9 °F 74% 30.44 in 10.0 mi North 4.6 mph - N/A   Clear
6:54 PM 15.1 °F 7.7 °F 9.0 °F 77% 30.43 in 10.0 mi North 4.6 mph - N/A   Clear
7:54 PM 10.9 °F - 7.0 °F 84% 30.43 in 10.0 mi Calm Calm - N/A   Clear
8:54 PM 7.0 °F -1.7 °F 5.0 °F 92% 30.42 in 9.0 mi East 4.6 mph - N/A   Clear
9:54 PM 7.0 °F 0.1 °F 5.0 °F 92% 30.43 in 3.0 mi SE 3.5 mph - N/A   Clear
10:54 PM 7.0 °F 0.1 °F 3.9 °F 87% 30.41 in 8.0 mi SE 3.5 mph - N/A   Clear
11:54 PM 5.0 °F -2.1 °F 1.9 °F 87% 30.40 in 8.0 mi SSE 3.5 mph - N/A   Clear